Location: Bucquoy
(50.1391°N, 2.7097°E)
Time: 09:07:06
(UTC+00:00)

IRS-1C - Pass Details

Date: 06 May 2021
Orbit: 815 x 817 km, 98.9° (Epoch: 21 June)

Event Time Altitude Azimuth Distance (km) Brightness Sun altitude
Rises 03:26:01 0° 12° (NNE) 3,359 8.2 -7.6°
Reaches altitude 10° 03:28:24 10° 9° (N) 2,422 7.3 -7.3°
Maximum altitude 03:33:39 59° 291° (WNW) 945 4.3 -6.7°
Drops below altitude 10° 03:38:52 10° 213° (SSW) 2,405 6.0 -6.0°
Enters shadow 03:40:12 - 211° (SSW) 2,927 6.4 -5.8°
